IZ1TJT Weather Reports


time (UTC)temp
C
wind
direction
speed
KPH
gust
KPH
rain 1hr
cm
rain 24hr
cm
rain mn
cm
humidity
%
barometer
mb
20260506014550 13 342 3.2 6.4 1.75 7.14 3.66 98 1011.9
20260506013059 13 314 1.6 4.8 3.17 6.78 3.30 97 1012.2
20260506011606 13 310 6.4 9.7 3.02 6.50 3.02 97 1011.8
20260506010050 13 39 3.2 9.7 2.67 6.25 2.67 96 1011.7
20260506004540 14 39 9.7 22.5 1.83 5.44 1.83 96 1011.8
20260506003038 16 66 4.8 11.3 0.13 3.71 0.13 92 1011.8
20260506001535 16 7 0.0 4.8 0.00 3.61 0.00 92 1011.4
20260506000034 16 36 1.6 8.0 0.00 3.63 0.00 92 1011.5
20260505234531 15 329 0.0 3.2 0.00 3.63 0.00 93 1011.9
20260505233028 15 321 0.0 3.2 0.00 3.63 0.00 93 1012.5
20260505231541 15 333 0.0 3.2 0.00 3.63 0.00 93 1012.5
20260505230026 15 309 0.0 6.4 0.00 3.63 0.00 93 1012.8
20260505224523 16 284 1.6 6.4 0.00 3.63 0.00 92 1012.9
20260505223020 16 267 1.6 4.8 0.00 3.63 0.00 93 1013.1
20260505221519 16 283 0.0 3.2 0.00 3.63 0.00 93 1013.4
20260505220019 16 285 0.0 3.2 0.00 3.63 3.63 93 1013.2
20260505214517 16 285 1.6 4.8 0.00 3.63 3.63 93 1013.4
20260505213022 16 293 0.0 3.2 0.00 3.63 3.63 93 1013.5
20260505211515 16 278 0.0 0.0 0.00 3.63 3.63 92 1013.6
20260505210015 16 278 1.6 6.4 0.00 3.63 3.63 91 1013.7
20260505204513 16 313 0.0 0.0 0.00 3.63 3.63 91 1013.8
20260505203017 16 313 0.0 0.0 0.00 3.63 3.63 92 1014.0
20260505201527 15 313 0.0 3.2 0.00 3.63 3.63 93 1013.9
20260505200013 16 311 1.6 6.4 0.00 3.63 3.63 93 1013.9
20260505194511 16 256 0.0 1.6 0.00 3.63 3.63 92 1013.9
20260505193010 16 295 0.0 1.6 0.00 3.63 3.63 92 1013.8
20260505191512 16 281 0.0 1.6 0.00 3.63 3.63 91 1013.8
20260505190012 16 281 0.0 0.0 0.00 3.63 3.63 91 1013.6
20260505184509 16 281 0.0 3.2 0.00 3.63 3.63 89 1013.5
20260505183015 16 261 0.0 3.2 0.00 3.63 3.63 88 1013.6
20260505181507 16 262 0.0 3.2 0.00 3.63 3.63 88 1013.7
20260505180008 16 236 0.0 4.8 0.00 3.63 3.63 88 1013.7
20260505174507 17 125 0.0 4.8 0.00 3.63 3.63 88 1013.6
20260505173005 17 282 0.0 4.8 0.00 3.63 3.63 88 1013.5
20260505171506 17 120 0.0 6.4 0.00 3.63 3.63 87 1013.4
20260505170002 17 285 0.0 11.3 0.00 3.63 3.63 88 1013.6
20260505164502 17 135 3.2 8.0 0.00 3.63 3.63 86 1013.7
20260505163003 17 151 1.6 9.7 0.00 3.63 3.63 87 1013.6
20260505161501 17 122 3.2 12.9 0.00 3.63 3.63 86 1013.6
20260505153108 17 316 0.0 6.4 0.00 3.63 3.63 84 1013.8
20260505151605 17 252 1.6 11.3 0.00 3.63 3.63 84 1013.9
20260505140104 18 112 4.8 11.3 0.00 3.63 3.63 83 1013.7
20260505124554 18 127 3.2 8.0 0.00 3.63 3.63 81 1013.8
20260505123051 18 77 3.2 8.0 0.00 3.63 3.63 82 1013.9
20260505121605 17 72 1.6 6.4 0.00 3.63 3.63 83 1014.0
20260505120048 17 51 3.2 9.7 0.00 3.63 3.63 83 1013.9
20260505114547 17 354 0.0 4.8 0.00 3.63 3.63 85 1014.0
20260505113046 16 49 0.0 11.3 0.00 3.63 3.63 87 1014.0
20260505111546 16 82 4.8 12.9 0.00 3.63 3.63 86 1014.1
20260505101552 16 49 0.0 9.7 0.15 3.63 3.63 90 1014.1
20260505100040 15 85 0.0 0.0 0.15 3.63 3.63 95 1014.1
20260505094540 14 15 0.0 3.2 0.15 3.63 3.63 93 1014.2
20260505093043 15 15 0.0 1.6 0.10 3.56 3.56 89 1014.3
20260505091541 15 340 6.4 14.5 0.00 3.45 3.45 84 1014.1
20260505090054 15 356 4.8 12.9 0.00 3.45 3.45 84 1014.0
20260505084548 16 40 6.4 14.5 0.00 3.45 3.45 83 1013.9
20260505083039 16 68 3.2 16.1 0.00 3.45 3.45 85 1013.5
20260505081543 16 43 3.2 16.1 0.00 3.45 3.45 84 1013.4
20260505080036 16 262 0.0 11.3 0.00 3.45 3.45 82 1013.7
20260505074536 16 285 0.0 4.8 0.00 3.45 3.45 88 1013.3
20260505073039 15 82 1.6 8.0 0.00 3.45 3.45 89 1013.7
20260505071534 15 30 1.6 12.9 0.00 3.45 3.45 90 1013.5
20260505070034 14 35 1.6 8.0 0.05 3.45 3.45 92 1013.5
20260505064533 13 316 0.0 14.5 0.10 3.45 3.45 90 1013.3
20260505063038 13 16 3.2 17.7 0.23 3.45 3.45 89 1012.9
20260505061536 13 29 16.1 27.4 0.46 3.45 3.45 90 1012.6
20260505060033 13 23 9.7 24.1 0.64 3.43 3.43 95 1012.7
20260505054536 12 260 1.6 9.7 0.69 3.35 3.35 97 1012.9
20260505053036 12 37 8.0 25.7 0.69 3.23 3.23 95 1012.0
20260505051523 13 61 3.2 6.4 0.69 3.00 3.00 99 1012.8
20260505041519 13 56 0.0 9.7 1.32 2.31 2.31 98 1013.3
20260505040018 12 6 3.2 11.3 1.24 2.03 2.03 98 1013.0
20260505034515 13 222 1.6 6.4 0.61 1.30 1.30 98 1013.3
20260505033018 13 322 1.6 3.2 0.48 1.09 1.09 98 1013.2
20260505031509 13 330 0.0 1.6 0.51 0.99 0.99 98 1013.3
20260505030007 13 330 0.0 0.0 0.36 0.79 0.79 98 1013.8
20260505024505 13 330 0.0 0.0 0.33 0.69 0.69 98 1013.9
20260505023002 13 330 0.0 4.8 0.33 0.61 0.61 97 1014.2
20260505021559 13 321 0.0 0.0 0.25 0.51 0.51 96 1014.4
20260505020057 13 321 0.0 3.2 0.28 0.43 0.43 96 1014.5